Regional Weather Roundup
Issued by NWS Cleveland, OH

Home | Current Version | Previous Version | Graphics & Text | Print | Product List | Glossary On
Versions: 1 2 3 4 5 6 7 8 9 10 11 12 13 14 15 16 17 18 19 20 21 22 23 24 25 26 27 28 29 30 31 32 33 34 35 36 37 38 39 40 41 42 43 44 45 46 47 48 49 50
000
ASUS41 KCLE 241900
RWRCLE
OHIO REGIONAL WEATHER ROUNDUP
NATIONAL WEATHER SERVICE WILMINGTON, OH
300 PM EDT WED MAY 24 2017

NOTE: "FAIR" INDICATES FEW OR NO CLOUDS BELOW 12,000 FEET WITH NO
SIGNIFICANT WEATHER AND/OR OBSTRUCTIONS TO VISIBILITY.

OHZ001>008-015>018-024>027-034-035-043-044-242000-
   NORTHWEST OHIO

CITY           SKY/WX    TMP DP  RH WIND       PRES   REMARKS
DEFIANCE       TSTM      61  55  81 VRB3      29.49R
FINDLAY        FAIR      72  56  57 E15G24    29.47F
TOLEDO EXPRESS FAIR      64  59  83 NE15      29.51F
TOLEDO EXEC    FAIR      67  59  75 E16G22    29.52F
LIMA           FAIR      71  58  63 E16       29.46F
$$

OHZ009>014-019>023-028>033-038-089-242000-
   NORTHEAST OHIO

CITY           SKY/WX    TMP DP  RH WIND       PRES   REMARKS
CLE-HOPKINS    RAIN      64  60  87 E6        29.58S FOG
CLE-LAKEFRONT  LGT RAIN  60  58  92 NE7       29.56S FOG
CUY CO. ARPT   CLOUDY    64  59  82 E7        29.57F
LORAIN-ELYRIA    N/A    N/A N/A N/A MISG      29.55F
ASHTABULA      LGT RAIN  67  53  61 SE10      29.60S
AKRON-CANTON   LGT RAIN  61  57  87 SE13      29.57S FOG
WOOSTER        NOT AVBL
MANSFIELD      CLOUDY    61  59  93 E10       29.53F FOG
YOUNGSTOWN     CLOUDY    66  54  65 SE16G22   29.58F
$$

OHZ042-051>053-060>062-070>072-077>081-242000-
  SOUTHWEST OHIO

CITY           SKY/WX    TMP DP  RH WIND       PRES   REMARKS
CINC-COVINGTON LGT RAIN  64  62  93 W3        29.41F
CINC-LUNKEN    PTSUNNY   70  60  70 E7        29.41F
HAMILTON       LGT RAIN  67  60  78 E6        29.42F
DAYTON         NOT AVBL
WRIGHT-PAT AFB NOT AVBL
DAYTON GENERAL FAIR      68  57  68 E10       29.42F
WILMINGTON     FAIR      69  59  70 E12G18    29.42F
$$

OHZ036-037-039>041-045>050-054>059-063>069-073>076-082>088-242000-
  CENTRAL AND SOUTHEAST OHIO

CITY           SKY/WX    TMP DP  RH WIND       PRES   REMARKS
COLUMBUS       CLOUDY    65  59  81 E7        29.49S
OSU AIRPORT    CLOUDY    66  59  78 E12       29.49F
BOLTON FIELD   CLOUDY    64  59  82 E8        29.48F
RICKENBACK AFB NOT AVBL
NEWARK         CLOUDY    64  59  83 E9        29.50F
MARION         CLOUDY    64  59  83 E14       29.50F
LANCASTER      CLOUDY    67  60  78 SE7       29.49F
ZANESVILLE     LGT RAIN  65  61  87 SE8       29.51F
NEW PHILLY     CLOUDY    63  59  87 SE8       29.56S
$$




USA.gov is the U.S. government's official web portal to all federal, state and local government web resources and services.